Time,TemperatureF,DewpointF,PressureIn,WindDirection,WindDirectionDegrees,WindSpeedMPH,WindSpeedGustMPH,Humidity,HourlyPrecipIn,Conditions,Clouds,dailyrainin,SoftwareType,DateUTC
2013-10-02 00:01:00,76.7,37.9,29.98,NW,315,6.3,9.2,25,0.00,,,0.00,WUHU216HW,2013-10-02 07:01:00,
2013-10-02 00:06:00,76.7,37.9,29.98,NW,315,3.4,9.2,25,0.00,,,0.00,WUHU216HW,2013-10-02 07:06:00,
2013-10-02 00:11:00,76.3,38.6,29.98,WNW,293,6.3,9.2,26,0.00,,,0.00,WUHU216HW,2013-10-02 07:11:00,
2013-10-02 00:16:00,76.3,38.6,29.98,NNW,338,7.4,9.2,26,0.00,,,0.00,WUHU216HW,2013-10-02 07:16:00,
2013-10-02 00:21:00,76.1,38.4,29.98,WSW,248,4.5,8.5,26,0.00,,,0.00,WUHU216HW,2013-10-02 07:21:00,
2013-10-02 00:26:00,76.0,38.3,29.98,NW,315,6.7,6.7,26,0.00,,,0.00,WUHU216HW,2013-10-02 07:26:00,
2013-10-02 00:31:00,76.0,38.3,29.98,WNW,293,4.5,8.1,26,0.00,,,0.00,WUHU216HW,2013-10-02 07:31:00,
2013-10-02 00:36:00,75.6,38.0,29.98,West,270,2.9,8.1,26,0.00,,,0.00,WUHU216HW,2013-10-02 07:36:00,
2013-10-02 00:41:00,75.1,38.5,29.99,West,270,2.9,4.9,27,0.00,,,0.00,WUHU216HW,2013-10-02 07:41:00,
2013-10-02 00:46:00,74.5,39.1,29.99,WNW,293,4.0,5.1,28,0.00,,,0.00,WUHU216HW,2013-10-02 07:46:00,
2013-10-02 00:51:00,74.0,38.6,29.99,West,270,4.0,5.1,28,0.00,,,0.00,WUHU216HW,2013-10-02 07:51:00,
2013-10-02 00:56:00,73.6,39.3,29.99,WNW,293,2.5,4.7,29,0.00,,,0.00,WUHU216HW,2013-10-02 07:56:00,
2013-10-02 01:01:00,73.1,38.9,29.99,West,270,3.1,4.5,29,0.00,,,0.00,WUHU216HW,2013-10-02 08:01:00,
2013-10-02 01:06:00,72.9,39.7,29.99,North,0,1.8,4.5,30,0.00,,,0.00,WUHU216HW,2013-10-02 08:06:00,
2013-10-02 01:11:00,72.5,39.4,29.99,NNW,338,2.9,3.4,30,0.00,,,0.00,WUHU216HW,2013-10-02 08:11:00,
2013-10-02 01:16:00,72.4,39.2,29.99,NNW,338,2.5,3.4,30,0.00,,,0.00,WUHU216HW,2013-10-02 08:16:00,
2013-10-02 01:21:00,72.2,39.9,29.99,WNW,293,1.8,4.0,31,0.00,,,0.00,WUHU216HW,2013-10-02 08:21:00,
2013-10-02 01:26:00,72.0,39.7,29.99,NW,315,3.1,4.0,31,0.00,,,0.00,WUHU216HW,2013-10-02 08:26:00,
2013-10-02 01:31:00,72.0,39.7,29.99,NNW,338,3.4,4.0,31,0.00,,,0.00,WUHU216HW,2013-10-02 08:31:00,
2013-10-02 01:36:00,72.0,40.5,29.99,WNW,293,6.0,6.0,32,0.00,,,0.00,WUHU216HW,2013-10-02 08:36:00,
2013-10-02 01:41:00,72.0,40.5,29.99,WNW,293,4.9,6.0,32,0.00,,,0.00,WUHU216HW,2013-10-02 08:41:00,
2013-10-02 01:46:00,72.0,40.5,29.99,NW,315,4.0,6.0,32,0.00,,,0.00,WUHU216HW,2013-10-02 08:46:00,
2013-10-02 01:51:00,71.8,40.3,29.99,WNW,293,3.6,5.1,32,0.00,,,0.00,WUHU216HW,2013-10-02 08:51:00,
2013-10-02 01:56:00,71.8,41.0,29.99,NW,315,4.5,5.4,33,0.00,,,0.00,WUHU216HW,2013-10-02 08:56:00,
2013-10-02 02:01:00,71.6,40.1,29.99,NW,315,4.0,5.4,32,0.00,,,0.00,WUHU216HW,2013-10-02 09:01:00,
2013-10-02 02:06:00,71.6,41.0,29.99,NW,315,4.7,5.8,33,0.00,,,0.00,WUHU216HW,2013-10-02 09:06:00,
2013-10-02 02:11:00,71.6,41.0,29.99,WNW,293,2.9,6.3,33,0.00,,,0.00,WUHU216HW,2013-10-02 09:11:00,
2013-10-02 02:16:00,71.6,41.0,29.99,NW,315,2.5,6.3,33,0.00,,,0.00,WUHU216HW,2013-10-02 09:16:00,
2013-10-02 02:21:00,71.3,40.6,29.99,WNW,293,1.8,3.6,33,0.00,,,0.00,WUHU216HW,2013-10-02 09:21:00,
2013-10-02 02:26:00,70.9,40.2,29.99,SSW,203,1.8,3.6,33,0.00,,,0.00,WUHU216HW,2013-10-02 09:26:00,
2013-10-02 02:31:00,70.6,40.0,29.99,SSE,158,0.0,2.7,33,0.00,,,0.00,WUHU216HW,2013-10-02 09:31:00,
2013-10-02 02:36:00,70.0,39.4,29.99,ENE,68,2.5,2.9,33,0.00,,,0.00,WUHU216HW,2013-10-02 09:36:00,
2013-10-02 02:41:00,69.3,38.8,29.99,ENE,68,1.1,2.9,33,0.00,,,0.00,WUHU216HW,2013-10-02 09:41:00,
2013-10-02 02:46:00,68.9,38.5,29.98,East,90,0.4,2.9,33,0.00,,,0.00,WUHU216HW,2013-10-02 09:46:00,
2013-10-02 02:51:00,68.6,38.9,29.98,East,90,0.4,1.8,34,0.00,,,0.00,WUHU216HW,2013-10-02 09:51:00,
2013-10-02 02:56:00,68.2,38.6,29.98,ENE,68,1.3,2.7,34,0.00,,,0.00,WUHU216HW,2013-10-02 09:56:00,
2013-10-02 03:01:00,67.9,38.3,29.98,East,90,1.8,3.4,34,0.00,,,0.00,WUHU216HW,2013-10-02 10:01:00,
2013-10-02 03:06:00,67.7,38.1,29.98,East,90,2.2,3.4,34,0.00,,,0.00,WUHU216HW,2013-10-02 10:06:00,
2013-10-02 03:11:00,67.5,38.7,29.98,East,90,1.8,2.2,35,0.00,,,0.00,WUHU216HW,2013-10-02 10:11:00,
2013-10-02 03:16:00,67.3,39.2,29.98,ENE,68,1.8,2.5,36,0.00,,,0.00,WUHU216HW,2013-10-02 10:16:00,
2013-10-02 03:21:00,67.3,40.0,29.98,NE,45,2.5,3.8,37,0.00,,,0.00,WUHU216HW,2013-10-02 10:21:00,
2013-10-02 03:26:00,67.5,40.1,29.98,NNE,23,2.9,3.8,37,0.00,,,0.00,WUHU216HW,2013-10-02 10:26:00,
2013-10-02 03:31:00,67.7,40.3,29.98,ENE,68,1.8,3.4,37,0.00,,,0.00,WUHU216HW,2013-10-02 10:31:00,
2013-10-02 03:36:00,67.7,40.3,29.98,ENE,68,1.1,2.9,37,0.00,,,0.00,WUHU216HW,2013-10-02 10:36:00,
2013-10-02 03:41:00,67.5,40.1,29.98,NW,315,2.2,2.2,37,0.00,,,0.00,WUHU216HW,2013-10-02 10:41:00,
2013-10-02 03:46:00,68.0,41.4,29.98,NW,315,2.0,2.5,38,0.00,,,0.00,WUHU216HW,2013-10-02 10:46:00,
2013-10-02 03:51:00,68.8,42.0,29.98,North,0,1.1,2.7,38,0.00,,,0.00,WUHU216HW,2013-10-02 10:51:00,
2013-10-02 03:56:00,69.1,42.3,29.98,NNW,338,1.3,4.0,38,0.00,,,0.00,WUHU216HW,2013-10-02 10:56:00,
2013-10-02 04:01:00,69.5,42.0,29.98,NNW,338,1.1,4.0,37,0.00,,,0.00,WUHU216HW,2013-10-02 11:01:00,
2013-10-02 04:06:00,69.3,41.8,29.98,SE,135,1.1,2.5,37,0.00,,,0.00,WUHU216HW,2013-10-02 11:06:00,
2013-10-02 04:11:00,68.9,41.4,29.98,SE,135,0.4,1.6,37,0.00,,,0.00,WUHU216HW,2013-10-02 11:11:00,
2013-10-02 04:16:00,68.4,41.0,29.98,SE,135,0.0,1.6,37,0.00,,,0.00,WUHU216HW,2013-10-02 11:16:00,
2013-10-02 04:21:00,68.2,40.8,29.98,South,180,0.7,1.8,37,0.00,,,0.00,WUHU216HW,2013-10-02 11:21:00,
2013-10-02 04:26:00,67.9,40.5,29.98,South,180,2.0,4.9,37,0.00,,,0.00,WUHU216HW,2013-10-02 11:26:00,
2013-10-02 04:31:00,67.3,40.0,29.99,SSE,158,0.4,4.9,37,0.00,,,0.00,WUHU216HW,2013-10-02 11:31:00,
2013-10-02 04:36:00,67.0,39.7,29.98,SE,135,0.9,2.5,37,0.00,,,0.00,WUHU216HW,2013-10-02 11:36:00,
2013-10-02 04:41:00,66.6,39.3,29.99,North,0,0.9,2.0,37,0.00,,,0.00,WUHU216HW,2013-10-02 11:41:00,
2013-10-02 04:46:00,66.2,39.1,29.99,ENE,68,1.8,1.8,37,0.00,,,0.00,WUHU216HW,2013-10-02 11:46:00,
2013-10-02 04:51:00,65.9,38.7,29.99,ESE,113,1.6,1.8,37,0.00,,,0.00,WUHU216HW,2013-10-02 11:51:00,
2013-10-02 04:56:00,65.5,38.4,29.99,ENE,68,2.0,2.5,37,0.00,,,0.00,WUHU216HW,2013-10-02 11:56:00,
2013-10-02 05:01:00,65.3,38.3,29.99,East,90,2.0,2.5,37,0.00,,,0.00,WUHU216HW,2013-10-02 12:01:00,
2013-10-02 05:06:00,65.0,37.9,29.99,ENE,68,1.8,2.5,37,0.00,,,0.00,WUHU216HW,2013-10-02 12:06:00,
2013-10-02 05:11:00,64.8,37.8,29.99,ENE,68,2.2,2.9,37,0.00,,,0.00,WUHU216HW,2013-10-02 12:11:00,
2013-10-02 05:16:00,64.8,37.8,29.99,East,90,1.8,4.0,37,0.00,,,0.00,WUHU216HW,2013-10-02 12:16:00,
2013-10-02 05:21:00,64.6,38.4,29.99,East,90,3.1,4.0,38,0.00,,,0.00,WUHU216HW,2013-10-02 12:21:00,
2013-10-02 05:26:00,64.6,38.4,29.99,NE,45,3.4,4.0,38,0.00,,,0.00,WUHU216HW,2013-10-02 12:26:00,
2013-10-02 05:31:00,64.4,38.2,29.99,ENE,68,3.4,5.4,38,0.00,,,0.00,WUHU216HW,2013-10-02 12:31:00,
2013-10-02 05:36:00,64.4,38.2,30.00,East,90,3.1,5.4,38,0.00,,,0.00,WUHU216HW,2013-10-02 12:36:00,
2013-10-02 05:41:00,64.4,38.2,29.99,East,90,3.4,4.0,38,0.00,,,0.00,WUHU216HW,2013-10-02 12:41:00,
2013-10-02 05:46:00,64.4,38.2,29.99,ESE,113,2.5,4.3,38,0.00,,,0.00,WUHU216HW,2013-10-02 12:46:00,
2013-10-02 05:51:00,64.3,38.0,30.00,East,90,2.9,4.3,38,0.00,,,0.00,WUHU216HW,2013-10-02 12:51:00,
2013-10-02 05:56:00,64.1,38.5,29.99,East,90,2.9,4.7,39,0.00,,,0.00,WUHU216HW,2013-10-02 12:56:00,
2013-10-02 06:01:00,64.1,38.5,29.99,ESE,113,4.3,4.7,39,0.00,,,0.00,WUHU216HW,2013-10-02 13:01:00,
2013-10-02 06:06:00,64.1,38.5,29.99,ENE,68,3.4,4.9,39,0.00,,,0.00,WUHU216HW,2013-10-02 13:06:00,
2013-10-02 06:11:00,64.1,38.5,29.99,East,90,5.1,5.1,39,0.00,,,0.00,WUHU216HW,2013-10-02 13:11:00,
2013-10-02 06:16:00,64.1,38.5,29.99,ENE,68,3.4,5.4,39,0.00,,,0.00,WUHU216HW,2013-10-02 13:16:00,
2013-10-02 06:21:00,64.3,38.7,29.99,ESE,113,6.3,6.3,39,0.00,,,0.00,WUHU216HW,2013-10-02 13:21:00,
2013-10-02 06:26:00,64.3,38.7,29.99,East,90,6.0,6.3,39,0.00,,,0.00,WUHU216HW,2013-10-02 13:26:00,
2013-10-02 06:31:00,64.4,38.9,29.99,East,90,4.3,6.0,39,0.00,,,0.00,WUHU216HW,2013-10-02 13:31:00,
2013-10-02 06:36:00,64.4,38.9,30.00,East,90,4.5,6.0,39,0.00,,,0.00,WUHU216HW,2013-10-02 13:36:00,
2013-10-02 06:41:00,64.6,39.1,30.00,East,90,5.4,6.3,39,0.00,,,0.00,WUHU216HW,2013-10-02 13:41:00,
2013-10-02 06:46:00,64.6,39.1,30.00,ENE,68,4.0,6.3,39,0.00,,,0.00,WUHU216HW,2013-10-02 13:46:00,
2013-10-02 06:51:00,64.8,39.3,30.00,ESE,113,3.6,6.3,39,0.00,,,0.00,WUHU216HW,2013-10-02 13:51:00,
2013-10-02 06:56:00,64.8,39.3,30.00,ESE,113,3.8,5.8,39,0.00,,,0.00,WUHU216HW,2013-10-02 13:56:00,
2013-10-02 07:01:00,65.0,39.3,30.00,ESE,113,4.0,5.6,39,0.00,,,0.00,WUHU216HW,2013-10-02 14:01:00,
2013-10-02 07:06:00,65.2,40.2,30.00,ESE,113,4.9,6.3,40,0.00,,,0.00,WUHU216HW,2013-10-02 14:06:00,
2013-10-02 07:11:00,65.3,40.4,30.00,East,90,5.1,6.3,40,0.00,,,0.00,WUHU216HW,2013-10-02 14:11:00,
2013-10-02 07:16:00,65.5,40.6,30.00,East,90,6.3,6.3,40,0.00,,,0.00,WUHU216HW,2013-10-02 14:16:00,
2013-10-02 07:21:00,65.7,40.8,30.00,East,90,4.7,6.3,40,0.00,,,0.00,WUHU216HW,2013-10-02 14:21:00,
2013-10-02 07:26:00,66.1,41.0,30.00,ESE,113,6.3,8.1,40,0.00,,,0.00,WUHU216HW,2013-10-02 14:26:00,
2013-10-02 07:31:00,66.4,41.4,30.00,ESE,113,4.7,8.1,40,0.00,,,0.00,WUHU216HW,2013-10-02 14:31:00,
2013-10-02 07:36:00,66.6,40.9,30.00,ESE,113,3.8,6.9,39,0.00,,,0.00,WUHU216HW,2013-10-02 14:36:00,
2013-10-02 07:41:00,66.8,41.0,29.99,ESE,113,6.7,6.9,39,0.00,,,0.00,WUHU216HW,2013-10-02 14:41:00,
2013-10-02 07:46:00,67.1,41.3,29.99,East,90,3.8,6.7,39,0.00,,,0.00,WUHU216HW,2013-10-02 14:46:00,
2013-10-02 07:51:00,67.3,41.5,29.99,ESE,113,4.9,6.7,39,0.00,,,0.00,WUHU216HW,2013-10-02 14:51:00,
2013-10-02 07:56:00,67.7,41.8,29.99,ESE,113,5.4,6.7,39,0.00,,,0.00,WUHU216HW,2013-10-02 14:56:00,
2013-10-02 08:01:00,68.0,42.8,29.99,ESE,113,5.8,7.6,40,0.00,,,0.00,WUHU216HW,2013-10-02 15:01:00,
2013-10-02 08:06:00,68.4,43.2,30.00,East,90,2.9,7.6,40,0.00,,,0.00,WUHU216HW,2013-10-02 15:06:00,
2013-10-02 08:11:00,68.8,43.5,30.00,ESE,113,2.7,6.9,40,0.00,,,0.00,WUHU216HW,2013-10-02 15:11:00,
2013-10-02 08:16:00,68.9,43.7,30.01,ESE,113,2.7,6.9,40,0.00,,,0.00,WUHU216HW,2013-10-02 15:16:00,
2013-10-02 08:21:00,69.3,44.0,30.01,SE,135,6.5,7.6,40,0.00,,,0.00,WUHU216HW,2013-10-02 15:21:00,
2013-10-02 08:26:00,69.5,44.1,30.01,SE,135,3.8,7.6,40,0.00,,,0.00,WUHU216HW,2013-10-02 15:26:00,
2013-10-02 08:31:00,69.8,44.5,30.01,SSE,158,4.9,6.5,40,0.00,,,0.00,WUHU216HW,2013-10-02 15:31:00,
2013-10-02 08:33:00,70.0,44.7,30.01,ESE,113,4.5,6.3,40,0.00,,,0.00,WUHU216HW,2013-10-02 15:33:00,
2013-10-02 08:38:00,70.2,44.8,30.02,SSE,158,3.4,6.3,40,0.00,,,0.00,WUHU216HW,2013-10-02 15:38:00,
2013-10-02 08:43:00,70.6,45.1,30.02,SE,135,4.0,6.3,40,0.00,,,0.00,WUHU216HW,2013-10-02 15:43:00,
2013-10-02 08:48:00,70.9,44.7,30.02,ESE,113,3.1,6.5,39,0.00,,,0.00,WUHU216HW,2013-10-02 15:48:00,
2013-10-02 08:53:00,71.3,45.0,30.02,SSE,158,6.0,6.9,39,0.00,,,0.00,WUHU216HW,2013-10-02 15:53:00,
2013-10-02 08:58:00,71.6,45.4,30.02,SE,135,6.3,7.4,39,0.00,,,0.00,WUHU216HW,2013-10-02 15:58:00,
2013-10-02 09:03:00,71.8,45.6,30.02,SSE,158,3.4,7.4,39,0.00,,,0.00,WUHU216HW,2013-10-02 16:03:00,
2013-10-02 09:08:00,72.2,45.8,30.02,SE,135,5.4,6.9,39,0.00,,,0.00,WUHU216HW,2013-10-02 16:08:00,
2013-10-02 09:13:00,72.4,45.3,30.02,SSE,158,3.4,6.9,38,0.00,,,0.00,WUHU216HW,2013-10-02 16:13:00,
2013-10-02 09:18:00,72.7,45.5,30.02,ESE,113,4.9,6.7,38,0.00,,,0.00,WUHU216HW,2013-10-02 16:18:00,
2013-10-02 09:23:00,73.1,45.9,30.02,South,180,2.5,6.9,38,0.00,,,0.00,WUHU216HW,2013-10-02 16:23:00,
2013-10-02 09:28:00,73.4,46.2,30.02,SSE,158,3.6,6.9,38,0.00,,,0.00,WUHU216HW,2013-10-02 16:28:00,
2013-10-02 09:33:00,73.6,46.4,30.02,SE,135,4.5,5.8,38,0.00,,,0.00,WUHU216HW,2013-10-02 16:33:00,
2013-10-02 09:38:00,74.0,45.9,30.02,SE,135,4.7,6.0,37,0.00,,,0.00,WUHU216HW,2013-10-02 16:38:00,
2013-10-02 09:43:00,74.2,46.1,30.02,SE,135,4.7,7.6,37,0.00,,,0.00,WUHU216HW,2013-10-02 16:43:00,
2013-10-02 09:48:00,74.5,46.5,30.02,SE,135,6.9,7.6,37,0.00,,,0.00,WUHU216HW,2013-10-02 16:48:00,
2013-10-02 09:53:00,75.1,46.2,30.02,South,180,5.1,7.2,36,0.00,,,0.00,WUHU216HW,2013-10-02 16:53:00,
2013-10-02 09:58:00,75.4,45.7,30.02,South,180,3.6,6.9,35,0.00,,,0.00,WUHU216HW,2013-10-02 16:58:00,
2013-10-02 10:03:00,75.8,46.0,30.01,South,180,2.5,6.9,35,0.00,,,0.00,WUHU216HW,2013-10-02 17:03:00,
2013-10-02 10:08:00,76.0,46.2,30.01,SE,135,4.9,7.6,35,0.00,,,0.00,WUHU216HW,2013-10-02 17:08:00,
2013-10-02 10:13:00,76.3,46.5,30.02,ENE,68,4.9,7.6,35,0.00,,,0.00,WUHU216HW,2013-10-02 17:13:00,
2013-10-02 10:18:00,76.9,47.0,30.02,ESE,113,4.0,6.9,35,0.00,,,0.00,WUHU216HW,2013-10-02 17:18:00,
2013-10-02 10:23:00,77.4,46.7,30.01,ESE,113,3.4,6.9,34,0.00,,,0.00,WUHU216HW,2013-10-02 17:23:00,
2013-10-02 10:28:00,77.8,47.0,30.01,SE,135,2.7,6.5,34,0.00,,,0.00,WUHU216HW,2013-10-02 17:28:00,
2013-10-02 10:33:00,77.9,46.4,30.00,SSE,158,2.5,6.5,33,0.00,,,0.00,WUHU216HW,2013-10-02 17:33:00,
2013-10-02 10:38:00,78.1,47.4,30.00,SSE,158,2.5,5.8,34,0.00,,,0.00,WUHU216HW,2013-10-02 17:38:00,
2013-10-02 10:43:00,78.7,47.0,30.00,SE,135,1.1,6.7,33,0.00,,,0.00,WUHU216HW,2013-10-02 17:43:00,
2013-10-02 10:48:00,78.8,46.4,29.99,SSE,158,1.6,6.7,32,0.00,,,0.00,WUHU216HW,2013-10-02 17:48:00,
2013-10-02 10:53:00,79.0,46.5,29.99,SSE,158,3.4,8.1,32,0.00,,,0.00,WUHU216HW,2013-10-02 17:53:00,
2013-10-02 10:58:00,79.4,46.9,29.99,ESE,113,2.5,8.1,32,0.00,,,0.00,WUHU216HW,2013-10-02 17:58:00,
2013-10-02 11:03:00,79.7,47.2,29.99,ESE,113,3.8,6.9,32,0.00,,,0.00,WUHU216HW,2013-10-02 18:03:00,
2013-10-02 11:08:00,80.3,47.7,29.99,South,180,6.3,6.9,32,0.00,,,0.00,WUHU216HW,2013-10-02 18:08:00,
2013-10-02 11:12:00,80.8,47.3,29.99,WSW,248,3.4,9.4,31,0.00,,,0.00,WUHU216HW,2013-10-02 18:12:00,
2013-10-02 11:17:00,81.2,47.6,29.99,SW,225,4.7,9.4,31,0.00,,,0.00,WUHU216HW,2013-10-02 18:17:00,
2013-10-02 11:22:00,81.4,47.0,29.99,SW,225,4.0,7.2,30,0.00,,,0.00,WUHU216HW,2013-10-02 18:22:00,
2013-10-02 11:27:00,81.7,47.4,29.99,SSE,158,5.8,9.4,30,0.00,,,0.00,WUHU216HW,2013-10-02 18:27:00,
2013-10-02 11:32:00,82.1,47.6,29.99,SW,225,4.0,9.4,30,0.00,,,0.00,WUHU216HW,2013-10-02 18:32:00,
2013-10-02 11:37:00,82.4,47.9,29.99,SW,225,0.2,6.7,30,0.00,,,0.00,WUHU216HW,2013-10-02 18:37:00,
2013-10-02 11:42:00,82.4,46.8,29.99,East,90,1.6,5.1,29,0.00,,,0.00,WUHU216HW,2013-10-02 18:42:00,
2013-10-02 11:47:00,82.4,46.8,29.99,SSW,203,8.5,8.5,29,0.00,,,0.00,WUHU216HW,2013-10-02 18:47:00,
2013-10-02 11:52:00,83.2,47.5,29.99,ESE,113,3.1,8.5,29,0.00,,,0.00,WUHU216HW,2013-10-02 18:52:00,
2013-10-02 11:57:00,83.7,46.9,29.99,WSW,248,2.9,8.5,28,0.00,,,0.00,WUHU216HW,2013-10-02 18:57:00,
2013-10-02 12:02:00,84.1,47.3,29.99,SSW,203,4.0,7.6,28,0.00,,,0.00,WUHU216HW,2013-10-02 19:02:00,
2013-10-02 12:07:00,84.6,47.7,29.98,South,180,6.5,12.3,28,0.00,,,0.00,WUHU216HW,2013-10-02 19:07:00,
2013-10-02 12:12:00,85.0,45.9,29.98,South,180,2.2,12.3,26,0.00,,,0.00,WUHU216HW,2013-10-02 19:12:00,
2013-10-02 12:17:00,85.3,46.2,29.97,South,180,5.4,9.4,26,0.00,,,0.00,WUHU216HW,2013-10-02 19:17:00,
2013-10-02 12:22:00,85.9,46.6,29.97,ESE,113,6.3,8.9,26,0.00,,,0.00,WUHU216HW,2013-10-02 19:22:00,
2013-10-02 12:27:00,86.4,47.1,29.96,SE,135,7.6,11.4,26,0.00,,,0.00,WUHU216HW,2013-10-02 19:27:00,
2013-10-02 12:32:00,86.9,46.5,29.96,South,180,3.8,11.4,25,0.00,,,0.00,WUHU216HW,2013-10-02 19:32:00,
2013-10-02 12:37:00,87.1,46.6,29.95,South,180,6.5,7.6,25,0.00,,,0.00,WUHU216HW,2013-10-02 19:37:00,
2013-10-02 12:42:00,87.3,46.8,29.95,ESE,113,2.2,9.6,25,0.00,,,0.00,WUHU216HW,2013-10-02 19:42:00,
2013-10-02 12:47:00,87.5,47.0,29.95,South,180,5.4,11.4,25,0.00,,,0.00,WUHU216HW,2013-10-02 19:47:00,
2013-10-02 12:52:00,87.7,46.0,29.95,SW,225,3.1,11.4,24,0.00,,,0.00,WUHU216HW,2013-10-02 19:52:00,
2013-10-02 12:57:00,87.1,45.5,29.95,SSW,203,2.2,6.3,24,0.00,,,0.00,WUHU216HW,2013-10-02 19:57:00,
2013-10-02 13:02:00,87.5,45.9,29.95,SSE,158,6.3,9.2,24,0.00,,,0.00,WUHU216HW,2013-10-02 20:02:00,
2013-10-02 13:07:00,87.5,45.9,29.95,SSW,203,6.0,9.6,24,0.00,,,0.00,WUHU216HW,2013-10-02 20:07:00,
2013-10-02 13:12:00,87.8,46.2,29.95,SE,135,2.5,9.6,24,0.00,,,0.00,WUHU216HW,2013-10-02 20:12:00,
2013-10-02 13:17:00,88.2,46.5,29.95,SSW,203,3.6,9.2,24,0.00,,,0.00,WUHU216HW,2013-10-02 20:17:00,
2013-10-02 13:22:00,87.8,45.1,29.95,West,270,2.0,9.2,23,0.00,,,0.00,WUHU216HW,2013-10-02 20:22:00,
2013-10-02 13:27:00,87.1,44.5,29.94,North,0,1.1,8.3,23,0.00,,,0.00,WUHU216HW,2013-10-02 20:27:00,
2013-10-02 13:32:00,86.9,44.4,29.95,WSW,248,3.1,3.4,23,0.00,,,0.00,WUHU216HW,2013-10-02 20:32:00,
2013-10-02 13:37:00,87.3,45.7,29.94,SSW,203,9.2,9.2,24,0.00,,,0.00,WUHU216HW,2013-10-02 20:37:00,
2013-10-02 13:42:00,88.0,45.3,29.94,East,90,0.7,9.2,23,0.00,,,0.00,WUHU216HW,2013-10-02 20:42:00,
2013-10-02 13:47:00,88.4,45.5,29.94,South,180,4.0,8.5,23,0.00,,,0.00,WUHU216HW,2013-10-02 20:47:00,
2013-10-02 13:52:00,88.6,45.7,29.94,South,180,3.4,8.5,23,0.00,,,0.00,WUHU216HW,2013-10-02 20:52:00,
2013-10-02 13:57:00,89.3,46.4,29.93,SW,225,4.7,8.5,23,0.00,,,0.00,WUHU216HW,2013-10-02 20:57:00,
2013-10-02 14:02:00,89.8,45.7,29.92,West,270,5.1,10.1,22,0.00,,,0.00,WUHU216HW,2013-10-02 21:02:00,
2013-10-02 14:07:00,90.4,46.2,29.92,SSE,158,3.8,10.1,22,0.00,,,0.00,WUHU216HW,2013-10-02 21:07:00,
2013-10-02 14:12:00,90.7,46.5,29.92,SE,135,4.7,6.9,22,0.00,,,0.00,WUHU216HW,2013-10-02 21:12:00,
2013-10-02 14:17:00,91.3,45.8,29.91,South,180,1.1,6.7,21,0.00,,,0.00,WUHU216HW,2013-10-02 21:17:00,
2013-10-02 14:22:00,91.8,46.2,29.91,ENE,68,3.6,6.7,21,0.00,,,0.00,WUHU216HW,2013-10-02 21:22:00,
2013-10-02 14:27:00,92.2,43.7,29.91,NNW,338,1.8,6.7,19,0.00,,,0.00,WUHU216HW,2013-10-02 21:27:00,
2013-10-02 14:32:00,91.8,43.4,29.91,West,270,0.7,3.6,19,0.00,,,0.00,WUHU216HW,2013-10-02 21:32:00,
2013-10-02 14:37:00,90.9,42.7,29.92,NNW,338,0.7,3.6,19,0.00,,,0.00,WUHU216HW,2013-10-02 21:37:00,
2013-10-02 14:42:00,91.1,44.6,29.92,ENE,68,3.4,4.7,20,0.00,,,0.00,WUHU216HW,2013-10-02 21:42:00,
2013-10-02 14:47:00,91.1,42.8,29.92,East,90,6.0,6.0,19,0.00,,,0.00,WUHU216HW,2013-10-02 21:47:00,
2013-10-02 14:52:00,91.6,43.2,29.91,ENE,68,7.4,7.4,19,0.00,,,0.00,WUHU216HW,2013-10-02 21:52:00,
2013-10-02 14:57:00,92.2,43.7,29.92,ENE,68,0.7,7.4,19,0.00,,,0.00,WUHU216HW,2013-10-02 21:57:00,
2013-10-02 15:02:00,92.5,42.2,29.92,SSW,203,2.7,7.4,18,0.00,,,0.00,WUHU216HW,2013-10-02 22:02:00,
2013-10-02 15:07:00,92.5,42.2,29.92,SW,225,8.9,8.9,18,0.00,,,0.00,WUHU216HW,2013-10-02 22:07:00,
2013-10-02 15:12:00,91.8,41.6,29.92,SSE,158,2.9,8.9,18,0.00,,,0.00,WUHU216HW,2013-10-02 22:12:00,
2013-10-02 15:17:00,91.8,41.6,29.92,NW,315,2.2,8.9,18,0.00,,,0.00,WUHU216HW,2013-10-02 22:17:00,
2013-10-02 15:22:00,91.8,41.6,29.92,SSE,158,2.2,6.9,18,0.00,,,0.00,WUHU216HW,2013-10-02 22:22:00,
2013-10-02 15:27:00,92.7,42.3,29.91,ESE,113,5.4,6.9,18,0.00,,,0.00,WUHU216HW,2013-10-02 22:27:00,
2013-10-02 15:32:00,93.2,41.0,29.91,West,270,4.0,7.4,17,0.00,,,0.00,WUHU216HW,2013-10-02 22:32:00,
2013-10-02 15:37:00,92.0,40.0,29.90,NNW,338,4.3,7.4,17,0.00,,,0.00,WUHU216HW,2013-10-02 22:37:00,
2013-10-02 15:42:00,90.9,40.9,29.90,SE,135,2.5,7.2,18,0.00,,,0.00,WUHU216HW,2013-10-02 22:42:00,
2013-10-02 15:47:00,91.4,41.3,29.90,SSW,203,2.5,4.7,18,0.00,,,0.00,WUHU216HW,2013-10-02 22:47:00,
2013-10-02 15:52:00,92.3,42.0,29.89,SE,135,3.8,6.9,18,0.00,,,0.00,WUHU216HW,2013-10-02 22:52:00,
2013-10-02 15:57:00,93.4,41.1,29.89,ESE,113,1.1,6.9,17,0.00,,,0.00,WUHU216HW,2013-10-02 22:57:00,
2013-10-02 16:02:00,94.0,41.6,29.89,ESE,113,6.7,9.2,17,0.00,,,0.00,WUHU216HW,2013-10-02 23:02:00,
2013-10-02 16:07:00,94.1,41.7,29.90,SW,225,4.5,9.2,17,0.00,,,0.00,WUHU216HW,2013-10-02 23:07:00,
2013-10-02 16:12:00,93.4,41.1,29.90,West,270,2.7,6.5,17,0.00,,,0.00,WUHU216HW,2013-10-02 23:12:00,
2013-10-02 16:17:00,92.7,40.6,29.90,WSW,248,5.8,6.3,17,0.00,,,0.00,WUHU216HW,2013-10-02 23:17:00,
2013-10-02 16:22:00,91.8,39.9,29.90,West,270,4.5,9.8,17,0.00,,,0.00,WUHU216HW,2013-10-02 23:22:00,
2013-10-02 16:27:00,91.1,39.3,29.90,WNW,293,5.4,9.8,17,0.00,,,0.00,WUHU216HW,2013-10-02 23:27:00,
2013-10-02 16:32:00,90.7,40.8,29.90,North,0,2.2,8.3,18,0.00,,,0.00,WUHU216HW,2013-10-02 23:32:00,
2013-10-02 16:37:00,90.7,40.8,29.90,West,270,1.1,8.3,18,0.00,,,0.00,WUHU216HW,2013-10-02 23:37:00,
2013-10-02 16:42:00,90.7,39.0,29.90,WSW,248,4.0,8.1,17,0.00,,,0.00,WUHU216HW,2013-10-02 23:42:00,
2013-10-02 16:47:00,91.1,39.3,29.90,NW,315,3.4,8.1,17,0.00,,,0.00,WUHU216HW,2013-10-02 23:47:00,
2013-10-02 16:49:00,91.1,39.3,29.90,NW,315,1.8,8.1,17,0.00,,,0.00,WUHU216HW,2013-10-02 23:49:00,
2013-10-02 16:54:00,90.7,39.0,29.89,West,270,3.8,4.7,17,0.00,,,0.00,WUHU216HW,2013-10-02 23:54:00,
2013-10-02 16:59:00,90.2,38.6,29.89,SSE,158,2.2,6.9,17,0.00,,,0.00,WUHU216HW,2013-10-02 23:59:00,
2013-10-02 17:04:00,90.5,38.9,29.89,WSW,248,3.8,6.9,17,0.00,,,0.00,WUHU216HW,2013-10-03 00:04:00,
2013-10-02 17:09:00,90.7,39.0,29.88,WNW,293,5.4,6.5,17,0.00,,,0.00,WUHU216HW,2013-10-03 00:09:00,
2013-10-02 17:14:00,90.2,38.6,29.88,WNW,293,2.0,6.7,17,0.00,,,0.00,WUHU216HW,2013-10-03 00:14:00,
2013-10-02 17:19:00,89.5,38.0,29.88,West,270,2.2,6.7,17,0.00,,,0.00,WUHU216HW,2013-10-03 00:19:00,
2013-10-02 17:24:00,89.3,37.9,29.89,SW,225,2.9,6.7,17,0.00,,,0.00,WUHU216HW,2013-10-03 00:24:00,
2013-10-02 17:29:00,89.1,37.7,29.89,SW,225,5.8,6.3,17,0.00,,,0.00,WUHU216HW,2013-10-03 00:29:00,
2013-10-02 17:34:00,88.7,37.4,29.89,SW,225,4.7,7.6,17,0.00,,,0.00,WUHU216HW,2013-10-03 00:34:00,
2013-10-02 17:39:00,88.2,37.0,29.90,SSW,203,2.5,7.6,17,0.00,,,0.00,WUHU216HW,2013-10-03 00:39:00,
2013-10-02 17:44:00,87.7,36.6,29.90,WSW,248,2.9,6.9,17,0.00,,,0.00,WUHU216HW,2013-10-03 00:44:00,
2013-10-02 17:49:00,87.5,38.2,29.90,WNW,293,3.4,5.1,18,0.00,,,0.00,WUHU216HW,2013-10-03 00:49:00,
2013-10-02 17:54:00,87.1,37.9,29.90,SSW,203,1.6,4.0,18,0.00,,,0.00,WUHU216HW,2013-10-03 00:54:00,
2013-10-02 17:59:00,86.2,37.1,29.90,West,270,5.4,7.8,18,0.00,,,0.00,WUHU216HW,2013-10-03 00:59:00,
2013-10-02 18:04:00,85.7,38.4,29.90,WNW,293,5.4,7.8,19,0.00,,,0.00,WUHU216HW,2013-10-03 01:04:00,
2013-10-02 18:09:00,85.1,37.9,29.90,West,270,5.1,7.6,19,0.00,,,0.00,WUHU216HW,2013-10-03 01:09:00,
2013-10-02 18:14:00,84.4,37.4,29.90,West,270,6.3,7.4,19,0.00,,,0.00,WUHU216HW,2013-10-03 01:14:00,
2013-10-02 18:19:00,83.9,39.7,29.90,WNW,293,4.5,7.4,21,0.00,,,0.00,WUHU216HW,2013-10-03 01:19:00,
2013-10-02 18:24:00,83.5,39.3,29.90,West,270,4.3,6.3,21,0.00,,,0.00,WUHU216HW,2013-10-03 01:24:00,
2013-10-02 18:29:00,83.2,39.1,29.90,WNW,293,2.2,5.8,21,0.00,,,0.00,WUHU216HW,2013-10-03 01:29:00,
2013-10-02 18:34:00,82.8,38.8,29.90,NW,315,3.4,5.1,21,0.00,,,0.00,WUHU216HW,2013-10-03 01:34:00,
2013-10-02 18:39:00,82.3,38.3,29.89,NW,315,4.0,4.0,21,0.00,,,0.00,WUHU216HW,2013-10-03 01:39:00,
2013-10-02 18:44:00,81.9,39.1,29.89,NNW,338,2.7,4.0,22,0.00,,,0.00,WUHU216HW,2013-10-03 01:44:00,
2013-10-02 18:49:00,81.7,39.0,29.89,West,270,4.0,4.0,22,0.00,,,0.00,WUHU216HW,2013-10-03 01:49:00,
2013-10-02 18:54:00,81.4,38.7,29.89,NW,315,3.4,4.3,22,0.00,,,0.00,WUHU216HW,2013-10-03 01:54:00,
2013-10-02 18:59:00,81.4,38.7,29.90,NW,315,4.5,4.7,22,0.00,,,0.00,WUHU216HW,2013-10-03 01:59:00,
2013-10-02 19:04:00,81.2,38.5,29.90,NW,315,2.0,4.7,22,0.00,,,0.00,WUHU216HW,2013-10-03 02:04:00,
2013-10-02 19:05:00,81.2,38.5,29.90,NW,315,4.3,4.9,22,0.00,,,0.00,WUHU216HW,2013-10-03 02:05:00,
2013-10-02 19:10:00,81.0,38.3,29.90,NNW,338,2.5,4.9,22,0.00,,,0.00,WUHU216HW,2013-10-03 02:10:00,
2013-10-02 19:15:00,81.0,38.3,29.90,NW,315,3.4,4.5,22,0.00,,,0.00,WUHU216HW,2013-10-03 02:15:00,
2013-10-02 19:20:00,80.8,38.3,29.91,WNW,293,3.4,4.5,22,0.00,,,0.00,WUHU216HW,2013-10-03 02:20:00,
2013-10-02 19:25:00,80.6,38.1,29.91,NW,315,4.5,5.4,22,0.00,,,0.00,WUHU216HW,2013-10-03 02:25:00,
2013-10-02 19:30:00,80.5,37.9,29.91,NW,315,4.3,5.4,22,0.00,,,0.00,WUHU216HW,2013-10-03 02:30:00,
2013-10-02 19:35:00,80.3,37.8,29.91,NNW,338,2.5,4.7,22,0.00,,,0.00,WUHU216HW,2013-10-03 02:35:00,
2013-10-02 19:40:00,80.1,38.6,29.91,NW,315,3.1,4.7,23,0.00,,,0.00,WUHU216HW,2013-10-03 02:40:00,
2013-10-02 19:45:00,79.9,38.5,29.92,NNW,338,2.7,4.7,23,0.00,,,0.00,WUHU216HW,2013-10-03 02:45:00,
2013-10-02 19:50:00,79.6,38.2,29.91,North,0,2.7,3.6,23,0.00,,,0.00,WUHU216HW,2013-10-03 02:50:00,
2013-10-02 19:55:00,79.4,38.0,29.92,North,0,2.7,3.6,23,0.00,,,0.00,WUHU216HW,2013-10-03 02:55:00,
2013-10-02 20:00:00,79.4,38.0,29.92,NNW,338,2.5,3.8,23,0.00,,,0.00,WUHU216HW,2013-10-03 03:00:00,
2013-10-02 20:05:00,79.4,38.0,29.92,NNW,338,2.5,3.8,23,0.00,,,0.00,WUHU216HW,2013-10-03 03:05:00,
2013-10-02 20:10:00,79.4,38.0,29.92,NNW,338,1.8,3.4,23,0.00,,,0.00,WUHU216HW,2013-10-03 03:10:00,
2013-10-02 20:15:00,79.2,37.8,29.92,NW,315,1.8,3.4,23,0.00,,,0.00,WUHU216HW,2013-10-03 03:15:00,
2013-10-02 20:20:00,78.8,37.5,29.91,WNW,293,1.3,2.2,23,0.00,,,0.00,WUHU216HW,2013-10-03 03:20:00,
2013-10-02 20:25:00,78.3,38.2,29.91,NW,315,1.8,2.5,24,0.00,,,0.00,WUHU216HW,2013-10-03 03:25:00,
2013-10-02 20:30:00,78.1,38.0,29.91,NW,315,2.5,4.0,24,0.00,,,0.00,WUHU216HW,2013-10-03 03:30:00,
2013-10-02 20:35:00,77.8,37.7,29.91,NNW,338,2.5,4.0,24,0.00,,,0.00,WUHU216HW,2013-10-03 03:35:00,
2013-10-02 20:40:00,77.4,37.5,29.92,NW,315,3.4,3.8,24,0.00,,,0.00,WUHU216HW,2013-10-03 03:40:00,
2013-10-02 20:45:00,77.4,38.4,29.92,NW,315,4.7,6.3,25,0.00,,,0.00,WUHU216HW,2013-10-03 03:45:00,
2013-10-02 20:50:00,77.9,37.8,29.92,NNW,338,6.9,9.2,24,0.00,,,0.00,WUHU216HW,2013-10-03 03:50:00,
2013-10-02 20:55:00,78.5,38.3,29.93,NNW,338,4.7,9.2,24,0.00,,,0.00,WUHU216HW,2013-10-03 03:55:00,
2013-10-02 21:00:00,78.8,38.5,29.93,North,0,4.9,8.3,24,0.00,,,0.00,WUHU216HW,2013-10-03 04:00:00,
2013-10-02 21:01:00,78.8,38.5,29.93,NNW,338,4.0,8.3,24,0.00,,,0.00,WUHU216HW,2013-10-03 04:01:00,
2013-10-02 21:06:00,78.8,38.5,29.93,NW,315,3.1,8.3,24,0.00,,,0.00,WUHU216HW,2013-10-03 04:06:00,
2013-10-02 21:11:00,78.7,38.4,29.93,WNW,293,2.0,4.7,24,0.00,,,0.00,WUHU216HW,2013-10-03 04:11:00,
2013-10-02 21:16:00,78.5,38.3,29.93,NW,315,3.4,4.7,24,0.00,,,0.00,WUHU216HW,2013-10-03 04:16:00,
2013-10-02 21:21:00,78.3,38.2,29.93,NNW,338,4.5,6.0,24,0.00,,,0.00,WUHU216HW,2013-10-03 04:21:00,
2013-10-02 21:26:00,78.3,38.2,29.93,NNW,338,2.9,6.0,24,0.00,,,0.00,WUHU216HW,2013-10-03 04:26:00,
2013-10-02 21:31:00,78.1,38.0,29.93,NNW,338,2.0,4.5,24,0.00,,,0.00,WUHU216HW,2013-10-03 04:31:00,
2013-10-02 21:36:00,78.1,38.0,29.93,NW,315,1.8,4.5,24,0.00,,,0.00,WUHU216HW,2013-10-03 04:36:00,
2013-10-02 21:41:00,77.9,37.8,29.93,NW,315,1.6,3.6,24,0.00,,,0.00,WUHU216HW,2013-10-03 04:41:00,
2013-10-02 21:46:00,77.8,37.7,29.93,NNW,338,3.4,3.6,24,0.00,,,0.00,WUHU216HW,2013-10-03 04:46:00,
2013-10-02 21:51:00,77.8,38.7,29.93,NNW,338,1.8,4.0,25,0.00,,,0.00,WUHU216HW,2013-10-03 04:51:00,
2013-10-02 21:56:00,77.6,38.6,29.94,NNW,338,1.8,4.0,25,0.00,,,0.00,WUHU216HW,2013-10-03 04:56:00,
2013-10-02 22:01:00,77.4,38.4,29.93,North,0,2.0,3.6,25,0.00,,,0.00,WUHU216HW,2013-10-03 05:01:00,
2013-10-02 22:06:00,77.2,38.4,29.93,NNW,338,2.5,3.6,25,0.00,,,0.00,WUHU216HW,2013-10-03 05:06:00,
2013-10-02 22:11:00,77.0,38.2,29.94,NNW,338,2.0,2.9,25,0.00,,,0.00,WUHU216HW,2013-10-03 05:11:00,
2013-10-02 22:16:00,77.0,38.2,29.94,NNW,338,1.8,2.9,25,0.00,,,0.00,WUHU216HW,2013-10-03 05:16:00,
2013-10-02 22:21:00,76.7,37.9,29.94,NNW,338,1.3,2.7,25,0.00,,,0.00,WUHU216HW,2013-10-03 05:21:00,
2013-10-02 22:26:00,76.5,37.7,29.94,NNW,338,1.8,2.7,25,0.00,,,0.00,WUHU216HW,2013-10-03 05:26:00,
2013-10-02 22:31:00,76.3,37.5,29.94,NNW,338,1.6,2.7,25,0.00,,,0.00,WUHU216HW,2013-10-03 05:31:00,
2013-10-02 22:36:00,76.3,38.6,29.94,NNW,338,1.8,2.7,26,0.00,,,0.00,WUHU216HW,2013-10-03 05:36:00,
2013-10-02 22:41:00,76.3,38.6,29.94,NNW,338,1.8,2.5,26,0.00,,,0.00,WUHU216HW,2013-10-03 05:41:00,
2013-10-02 22:46:00,76.0,38.3,29.94,North,0,1.3,2.5,26,0.00,,,0.00,WUHU216HW,2013-10-03 05:46:00,
2013-10-02 22:51:00,76.0,38.3,29.94,NNW,338,1.8,2.9,26,0.00,,,0.00,WUHU216HW,2013-10-03 05:51:00,
2013-10-02 22:56:00,75.8,38.2,29.94,WNW,293,1.8,3.6,26,0.00,,,0.00,WUHU216HW,2013-10-03 05:56:00,
2013-10-02 23:01:00,75.2,37.6,29.94,SW,225,2.5,5.8,26,0.00,,,0.00,WUHU216HW,2013-10-03 06:01:00,
2013-10-02 23:06:00,74.7,37.2,29.95,NW,315,1.8,5.8,26,0.00,,,0.00,WUHU216HW,2013-10-03 06:06:00,
2013-10-02 23:11:00,74.0,38.6,29.95,North,0,2.2,2.7,28,0.00,,,0.00,WUHU216HW,2013-10-03 06:11:00,
2013-10-02 23:16:00,73.6,38.3,29.95,NNE,23,3.8,4.3,28,0.00,,,0.00,WUHU216HW,2013-10-03 06:16:00,
2013-10-02 23:21:00,73.4,38.2,29.95,North,0,4.0,4.7,28,0.00,,,0.00,WUHU216HW,2013-10-03 06:21:00,
2013-10-02 23:26:00,73.8,38.4,29.95,NNE,23,2.2,4.7,28,0.00,,,0.00,WUHU216HW,2013-10-03 06:26:00,
2013-10-02 23:31:00,73.8,38.4,29.95,North,0,1.1,4.0,28,0.00,,,0.00,WUHU216HW,2013-10-03 06:31:00,
2013-10-02 23:36:00,73.8,38.4,29.94,NNW,338,1.3,2.7,28,0.00,,,0.00,WUHU216HW,2013-10-03 06:36:00,
2013-10-02 23:41:00,73.8,38.4,29.94,NW,315,2.0,2.5,28,0.00,,,0.00,WUHU216HW,2013-10-03 06:41:00,
2013-10-02 23:46:00,73.8,38.4,29.94,NNW,338,2.5,2.7,28,0.00,,,0.00,WUHU216HW,2013-10-03 06:46:00,
2013-10-02 23:51:00,73.6,38.3,29.94,NW,315,2.2,2.7,28,0.00,,,0.00,WUHU216HW,2013-10-03 06:51:00,
2013-10-02 23:56:00,73.6,38.3,29.94,NNW,338,2.5,3.4,28,0.00,,,0.00,WUHU216HW,2013-10-03 06:56:00,